Simultaneous Nadir Overpasses (SNOs) Predictions

Prediction of SNOs between GOES-16 and AQUA Satellite Orbit:

Table of predicted SNOs for the next 14.0 days since TLE Epoch: 6/3/2022
Index Date Time (GOES-16) GOES-16 Lat,Lon AQUA Lat,Lon Distance(km) Time Diff (sec)
1 06/04/2022 18:43:36 -0.00, -75.19 -0.17, -75.94 85.28 80
2 06/06/2022 18:28:24 -0.00, -75.20 0.49, -72.89 262.36 80
3 06/07/2022 06:52:14 0.01, -75.20 0.62, -78.02 320.98 80
4 06/09/2022 06:37:02 0.00, -75.22 -0.04, -74.98 27.43 80
5 06/11/2022 06:24:30 -0.00, -75.24 -0.72, -71.93 376.17 80
6 06/11/2022 18:48:27 -0.00, -75.24 -0.41, -77.09 210.49 80
7 06/13/2022 18:33:16 0.01, -75.26 0.29, -74.05 138.35 80
8 06/14/2022 06:57:05 -0.00, -75.26 0.82, -79.18 444.72 80
9 06/15/2022 18:23:23 0.01, -75.28 0.93, -70.99 487.37 80
10 06/16/2022 06:44:32 -0.01, -75.28 0.17, -76.12 95.59 80
